User: anonymous   Login
Location: Home
(42.5358°N, 72.7383°W)
Time: 09:03:38
(UTC-04:00)
Language:

S-56A Canister/Altair - Orbit

View from above orbital plane
View from above orbital plane
View from above satellite
View from above satellite

Ground track
Ground track

The orbit data is extracted from the following two-line orbital elements,

1 00082U 61004B   24198.82331741  .00001033  00000-0  91413-3 0  9992
2 00082  38.8539  79.6133 1164610  77.4893 295.3346 12.26835190990753
Epoch (UTC): 16 July 2024 19:45:34
Eccentricity: 0.1164610
inclination: 38.8539°
perigee height: 638 km
apogee height: 2488 km
right ascension of ascending node: 79.6133°
argument of perigee: 77.4893°
revolutions per day: 12.26835190
mean anomaly at epoch: 295.3346°
orbit number at epoch: 99075

The dashed part of the orbit path shows where the satellite is in the earth's shadow,  

DLR